Location: Emporia
(38.4040°N, 96.1810°W)
Time: 16:37:39
(UTC-05:00)

Amateur Radio Satellites - All Passes

Search period start: 23 April 2017 16:07
Search period end: 24 April 2017 16:07
Location: Emporia, 38.4040°N, 96.1810°W

Satellite Date Start Highest point End Downlink Frequencies (MHz)
Time Altitude Azimuth
AO-7 23 Apr 16:08:08 16:16:26 87° 253° (WSW) 16:24:47 .
ITUPSAT 1 23 Apr 16:17:57 16:22:42 67° 102° (ESE) 16:27:27 437.325
YUBILEINY 23 Apr 16:37:17 16:46:04 70° 81° (E) 16:54:48 435.215
ISS 23 Apr 16:47:55 16:51:06 48° 36° (NE) 16:54:16 437.550
CUBESAT XI-V 23 Apr 16:49:35 16:51:01 11° 90° (E) 16:52:28 437.345
Tancredo 1 23 Apr 16:53:16 16:56:23 72° 39° (NE) 16:59:28 437.200
RS-15 23 Apr 17:04:00 17:16:01 55° 50° (NE) 17:27:26 29.354- 29.394
BEESAT 2 23 Apr 17:08:28 17:11:30 21° 311° (NW) 17:14:35 435.950
DOVE 4 23 Apr 17:12:13 17:15:08 15° 63° (ENE) 17:18:02 437.250
BEESAT 23 Apr 17:18:02 17:22:07 29° 291° (WNW) 17:26:11 436.000
SO-50 23 Apr 17:23:51 17:28:19 64° 242° (WSW) 17:32:45 436.795
STARS 23 Apr 17:28:44 17:30:33 12° 92° (E) 17:32:22 437.465
MOZHAYETS 4 23 Apr 17:43:18 17:47:18 30° 290° (WNW) 17:51:19
XW-2F 23 Apr 17:56:55 17:59:22 17° 68° (ENE) 18:01:49 145.980 - 146.000
ITUPSAT 1 23 Apr 17:57:49 17:59:56 13° 298° (WNW) 18:02:04 437.325
AO-7 23 Apr 18:05:39 18:10:10 16° 269° (W) 18:14:44 .
NUDT-PHONESAT 23 Apr 18:18:39 18:21:41 25° 71° (ENE) 18:24:44 437.300
CUTE-I 23 Apr 18:19:29 18:24:26 40° 70° (ENE) 18:29:22 437.470
KKS-1 23 Apr 18:21:04 18:25:29 66° 286° (WNW) 18:29:52 437.445
CUBESAT XI-V 23 Apr 18:24:07 18:28:49 66° 285° (WNW) 18:33:27 437.345
ISS 23 Apr 18:25:17 18:27:17 15° 230° (SW) 18:29:16 437.550
YUBILEINY 23 Apr 18:35:38 18:41:57 23° 279° (W) 18:48:17 435.215
XW-2D 23 Apr 18:42:42 18:46:25 72° 76° (ENE) 18:50:09 145.860 - 145.880
DOVE 4 23 Apr 18:46:55 18:52:11 70° 259° (W) 18:57:28 437.250
XW-2B 23 Apr 18:49:31 18:53:14 86° 83° (E) 18:57:00 145.730 - 145.750
LilacSat-2 23 Apr 18:56:21 19:00:05 72° 259° (W) 19:03:51 437.200
XW-2C 23 Apr 19:01:18 19:05:00 64° 260° (W) 19:08:44 145.795 - 145.815
HO-68 23 Apr 19:01:50 19:07:59 32° 63° (ENE) 19:14:07 435.675
STARS 23 Apr 19:02:56 19:07:12 52° 287° (WNW) 19:11:25 437.465
KAITUO 1B 23 Apr 19:07:41 19:11:21 68° 260° (W) 19:15:02 145.475/437.950
RS-15 23 Apr 19:17:04 19:28:13 45° 252° (WSW) 19:38:54 29.354- 29.394
XW-2A 23 Apr 19:24:06 19:26:46 22° 71° (ENE) 19:29:26 145.665 - 145.685
XW-2F 23 Apr 19:30:03 19:33:17 28° 263° (W) 19:36:32 145.980 - 146.000
M-CUBED/EXP-1 PRIME 23 Apr 19:45:21 19:45:52 10° 94° (E) 19:46:23 437.505
JUGNU 23 Apr 19:51:10 19:52:32 11° 172° (S) 19:53:53 437.505
NUDT-PHONESAT 23 Apr 19:53:01 19:55:34 18° 266° (W) 19:58:08 437.300
CUTE-I 23 Apr 20:00:17 20:04:33 24° 265° (W) 20:08:51 437.470
CUTE 1.7 + AOD 2 23 Apr 20:00:51 20:05:01 69° 77° (ENE) 20:09:14 437.475
AAUSAT CUBESAT 2 23 Apr 20:11:16 20:14:43 26° 70° (ENE) 20:18:11 437.432
Oscar 11 23 Apr 20:22:48 20:25:03 14° 65° (ENE) 20:27:18 .
O/OREOS (USA 219) 23 Apr 20:23:32 20:25:47 13° 54° (NE) 20:28:02 437.305
UWE-3 23 Apr 20:24:58 20:28:52 34° 72° (ENE) 20:32:41 435.000/436.395/437.385
SEEDS 23 Apr 20:27:32 20:31:42 90° 263° (W) 20:35:55 437.485
CUBEBUG 2 23 Apr 20:30:15 20:34:40 68° 76° (ENE) 20:38:58 437.445
NO-84 23 Apr 20:37:52 20:41:11 31° 130° (SE) 20:44:16 435.350 FM
HO-68 23 Apr 20:48:36 20:55:25 47° 260° (W) 21:02:17 435.675
STRAND 1 23 Apr 20:49:58 20:55:05 76° 103° (ESE) 21:00:11 437.568
XW-2A 23 Apr 20:57:16 20:59:29 16° 265° (W) 21:01:41 145.665 - 145.685
M-CUBED/EXP-1 PRIME 23 Apr 21:16:33 21:20:46 58° 291° (WNW) 21:24:38 437.505
OBJECT BX 23 Apr 21:25:29 21:27:00 12° 67° (ENE) 21:28:32 145.990 - 145.960
DELFI C3 23 Apr 21:26:47 21:29:37 19° 68° (ENE) 21:32:29 145.870
ZACube-1 23 Apr 21:27:50 21:32:04 79° 256° (WSW) 21:36:16 437.345
AO-73 23 Apr 21:36:49 21:41:01 68° 259° (W) 21:45:10 145.935
JUGNU 23 Apr 21:38:26 21:40:38 12° 183° (S) 21:42:49 437.505
AAUSAT CUBESAT 2 23 Apr 21:46:51 21:50:06 22° 265° (W) 21:53:24 437.432
Oscar 11 23 Apr 21:56:36 22:00:44 48° 261° (W) 22:04:55 .
O/OREOS (USA 219) 23 Apr 22:01:06 22:05:39 63° 252° (WSW) 22:10:08 437.305
UWE-3 23 Apr 22:02:22 22:05:22 18° 266° (W) 22:08:21 435.000/436.395/437.385
PRISM 23 Apr 22:09:16 22:11:37 15° 93° (E) 22:13:56 437.425
NO-84 23 Apr 22:15:46 22:18:44 25° 323° (NW) 22:21:30 435.350 FM
STRAND 1 23 Apr 22:31:25 22:33:34 13° 299° (WNW) 22:35:44 437.568
LO-87 23 Apr 22:40:10 22:41:58 13° 67° (ENE) 22:43:46 145.935 - 145.965
ESTCUBE 1 23 Apr 22:51:25 22:53:29 13° 64° (ENE) 22:55:34 437.505/2401.250
TIGRISAT 23 Apr 22:54:55 22:58:36 28° 97° (E) 23:02:19 435.000
SRMSAT 23 Apr 22:54:57 22:56:55 12° 175° (S) 22:58:54 437.500
OBJECT BX 23 Apr 22:56:55 23:00:19 38° 262° (W) 23:03:44 145.990 - 145.960
DELFI C3 23 Apr 23:00:44 23:04:11 29° 263° (W) 23:07:41 145.870
AO-85 23 Apr 23:03:42 23:07:40 68° 58° (ENE) 23:11:49 145.980
UNISAT 6 23 Apr 23:14:44 23:18:56 53° 100° (E) 23:23:09 437.425
PRISM 23 Apr 23:43:09 23:47:03 40° 288° (WNW) 23:50:55 437.425
BEESAT 2 23 Apr 23:49:41 23:52:11 16° 46° (NE) 23:54:40 435.950
BEESAT 3 23 Apr 23:57:25 00:01:15 42° 55° (NE) 00:05:03 437.485
FO-29 24 Apr 00:01:18 00:06:31 81° 283° (WNW) 00:11:58 435.910
POLYITAN 1 24 Apr 00:08:21 00:10:24 13° 92° (E) 00:12:26 437.675
LO-87 24 Apr 00:11:43 00:15:04 35° 262° (W) 00:18:27 145.935 - 145.965
QB50P2 24 Apr 00:14:07 00:16:55 17° 94° (E) 00:19:42 145.880/145.840
DX 1 24 Apr 00:21:42 00:23:47 13° 64° (ENE) 00:25:51 434.975-435.025
ESTCUBE 1 24 Apr 00:25:20 00:29:45 59° 259° (W) 00:34:13 437.505/2401.250
TIGRISAT 24 Apr 00:31:49 00:35:08 22° 291° (WNW) 00:38:28 435.000
AIST 2D 24 Apr 00:36:46 00:40:15 61° 101° (E) 00:43:44 435.315
NANOSAT C BR1 24 Apr 00:38:44 00:42:20 27° 96° (E) 00:45:54 145.865
SRMSAT 24 Apr 00:43:19 00:45:10 11° 186° (S) 00:47:03 437.500
SPROUT 24 Apr 00:44:01 00:48:11 55° 74° (ENE) 00:52:23 437.525
VELOX 1 24 Apr 00:52:36 00:57:03 77° 76° (ENE) 01:01:32 145.980
UNISAT 6 24 Apr 00:53:15 00:55:11 13° 295° (WNW) 00:57:07 437.425
EO-79 24 Apr 01:03:59 01:08:09 62° 101° (E) 01:12:17 145.935-145.965
50 SAT 24 Apr 01:06:39 01:10:04 61° 75° (ENE) 01:13:32 437.505
DUCHIFAT 1 24 Apr 01:09:55 01:14:03 58° 100° (E) 01:18:09 145.980
BEESAT 2 24 Apr 01:26:18 01:30:15 52° 243° (WSW) 01:34:09 435.950
UKube-1 24 Apr 01:28:55 01:33:05 49° 73° (ENE) 01:37:17 .
BEESAT 3 24 Apr 01:36:09 01:38:28 15° 251° (WSW) 01:40:46 437.485
POLYITAN 1 24 Apr 01:42:23 01:46:24 45° 287° (WNW) 01:50:23 437.675
QB50P2 24 Apr 01:48:58 01:52:48 35° 288° (WNW) 01:56:37 145.880/145.840
DX 1 24 Apr 01:55:10 01:59:28 55° 259° (W) 02:03:47 434.975-435.025
NANOSAT C BR1 24 Apr 02:14:38 02:17:53 22° 291° (WNW) 02:21:07 145.865
SPROUT 24 Apr 02:22:58 02:24:24 11° 269° (W) 02:25:49 437.525
BUGSAT 1 24 Apr 02:24:52 02:28:49 57° 286° (WNW) 02:32:44 437.445
Gurwin Techsat 1B 24 Apr 02:30:03 02:34:24 25° 95° (E) 02:38:43 435.225
EO-79 24 Apr 02:42:18 02:43:21 11° 296° (WNW) 02:44:25 145.935-145.965
BEESAT 24 Apr 02:45:22 02:49:21 27° 68° (ENE) 02:53:19 436.000
DUCHIFAT 1 24 Apr 02:47:54 02:49:11 11° 296° (WNW) 02:50:28 145.980
Oscar 19 24 Apr 02:53:10 02:58:24 75° 103° (ESE) 03:03:35 437.125/150
MOZHAYETS 4 24 Apr 03:07:18 03:10:35 20° 67° (ENE) 03:13:52
UKube-1 24 Apr 03:07:20 03:09:22 13° 268° (W) 03:11:24 .
NO-84 24 Apr 03:14:32 03:15:20 11° 28° (NNE) 03:16:07 435.350 FM
PCSat 24 Apr 03:16:09 03:21:20 48° 112° (ESE) 03:26:32 145.827
ITUPSAT 1 24 Apr 03:22:59 03:27:40 65° 74° (ENE) 03:32:24 437.325
YUBILEINY 24 Apr 03:45:01 03:49:11 14° 77° (ENE) 03:53:20 435.215
Gurwin Techsat 1B 24 Apr 04:09:31 04:14:23 37° 291° (WNW) 04:19:14 435.225
AO-7 24 Apr 04:11:54 04:19:17 34° 98° (E) 04:26:39 .
ITAMSAT 1 24 Apr 04:12:27 04:17:10 35° 98° (E) 04:21:51 435.822/435.867
BEESAT 24 Apr 04:22:54 04:27:01 29° 263° (W) 04:31:08 436.000
STARS 24 Apr 04:25:34 04:26:09 10° 62° (ENE) 04:26:44 437.465
Oscar 19 24 Apr 04:34:34 04:37:02 14° 299° (WNW) 04:39:30 437.125/150
MOZHAYETS 4 24 Apr 04:43:16 04:47:28 37° 263° (W) 04:51:41
NO-84 24 Apr 04:50:22 04:53:12 75° 226° (SW) 04:56:02 435.350 FM
PCSat 24 Apr 05:00:34 05:04:57 24° 310° (NW) 05:09:20 145.827
ITUPSAT 1 24 Apr 05:04:16 05:05:55 12° 269° (W) 05:07:33 437.325
KKS-1 24 Apr 05:17:06 05:21:35 88° 264° (W) 05:26:05 437.445
CUBESAT XI-V 24 Apr 05:25:27 05:30:04 82° 256° (WSW) 05:34:46 437.345
YUBILEINY 24 Apr 05:35:51 05:44:32 84° 95° (E) 05:53:16 435.215
ITAMSAT 1 24 Apr 05:52:11 05:56:28 27° 293° (WNW) 06:00:43 435.822/435.867
STARS 24 Apr 05:57:26 06:01:51 74° 257° (WSW) 06:06:16 437.465
AO-7 24 Apr 06:04:17 06:12:12 51° 295° (WNW) 06:20:07 .
M-CUBED/EXP-1 PRIME 24 Apr 06:27:56 06:30:22 14° 58° (ENE) 06:32:49 437.505
STRAND 1 24 Apr 06:29:40 06:30:56 11° 60° (ENE) 06:32:13 437.568
LilacSat-2 24 Apr 06:32:26 06:34:19 13° 93° (E) 06:36:11 437.200
XW-2C 24 Apr 06:36:33 06:38:37 14° 93° (E) 06:40:41 145.795 - 145.815
CUTE-I 24 Apr 06:38:58 06:42:24 17° 93° (E) 06:45:49 437.470
KAITUO 1B 24 Apr 06:41:54 06:43:35 13° 92° (E) 06:45:16 145.475/437.950
DOVE 4 24 Apr 06:48:15 06:52:32 35° 96° (E) 06:56:34 437.250
XW-2F 24 Apr 07:03:14 07:06:35 29° 97° (E) 07:09:54 145.980 - 146.000
NUDT-PHONESAT 24 Apr 07:23:35 07:27:08 42° 99° (E) 07:30:40 437.300
RS-15 24 Apr 07:25:27 07:36:00 38° 105° (ESE) 07:46:48 29.354- 29.394
SO-50 24 Apr 07:36:12 07:40:45 58° 118° (ESE) 07:45:15 436.795
YUBILEINY 24 Apr 07:36:39 07:42:25 19° 295° (WNW) 07:48:13 435.215
CUTE 1.7 + AOD 2 24 Apr 07:48:43 07:50:52 13° 92° (E) 07:53:01 437.475
XW-2D 24 Apr 07:50:35 07:54:21 59° 284° (WNW) 07:58:06 145.860 - 145.880
XW-2B 24 Apr 07:57:30 08:01:11 50° 286° (WNW) 08:04:52 145.730 - 145.750
M-CUBED/EXP-1 PRIME 24 Apr 07:59:41 08:04:11 65° 254° (WSW) 08:08:51 437.505
AO-7 24 Apr 08:02:12 08:03:00 10° 316° (NW) 08:03:50 .
STRAND 1 24 Apr 08:04:13 08:09:20 88° 258° (WSW) 08:14:28 437.568
LilacSat-2 24 Apr 08:05:10 08:08:43 37° 287° (WNW) 08:12:18 437.200
XW-2C 24 Apr 08:09:26 08:12:55 34° 287° (WNW) 08:16:24 145.795 - 145.815
SEEDS 24 Apr 08:13:48 08:16:34 17° 93° (E) 08:19:21 437.485
KAITUO 1B 24 Apr 08:14:14 08:17:45 38° 287° (WNW) 08:21:15 145.475/437.950
CUTE-I 24 Apr 08:17:35 08:22:45 54° 288° (WNW) 08:27:54 437.470
HO-68 24 Apr 08:17:43 08:24:19 38° 98° (E) 08:30:53 435.675
XW-2A 24 Apr 08:19:27 08:22:23 28° 97° (E) 08:25:19 145.665 - 145.685
CUBEBUG 2 24 Apr 08:23:46 08:26:05 14° 93° (E) 08:28:25 437.445
DOVE 4 24 Apr 08:26:31 08:29:56 20° 294° (WNW) 08:33:13 437.250
XW-2F 24 Apr 08:37:57 08:40:29 17° 291° (WNW) 08:43:00 145.980 - 146.000
NUDT-PHONESAT 24 Apr 08:59:17 09:00:38 12° 294° (WNW) 09:01:59 437.300
ZACube-1 24 Apr 09:17:59 09:21:11 21° 95° (E) 09:24:26 437.345
SO-50 24 Apr 09:18:26 09:21:33 18° 315° (NW) 09:24:39 436.795
CUTE 1.7 + AOD 2 24 Apr 09:22:49 09:26:56 46° 286° (WNW) 09:31:02 437.475
Tancredo 1 24 Apr 09:26:21 09:29:17 41° 136° (SE) 09:32:15 437.200
AO-73 24 Apr 09:26:24 09:29:49 23° 95° (E) 09:33:15 145.935
ISS 24 Apr 09:26:50 09:29:47 32° 134° (SE) 09:32:43 437.550
AAUSAT CUBESAT 2 24 Apr 09:29:14 09:33:23 60° 101° (E) 09:37:30 437.432
RS-15 24 Apr 09:35:53 09:47:49 64° 307° (NW) 10:00:09 29.354- 29.394
Oscar 11 24 Apr 09:45:13 09:49:09 32° 97° (E) 09:53:03 .
SEEDS 24 Apr 09:48:27 09:52:22 37° 288° (WNW) 09:56:16 437.485
UWE-3 24 Apr 09:51:31 09:55:42 85° 282° (WNW) 09:59:56 435.000/436.395/437.385
TIGRISAT 24 Apr 09:52:27 09:55:49 22° 69° (ENE) 09:59:08 435.000
XW-2A 24 Apr 09:53:11 09:54:52 13° 292° (WNW) 09:56:34 145.665 - 145.685
CUBEBUG 2 24 Apr 09:59:00 10:02:53 40° 287° (WNW) 10:06:48 437.445
HO-68 24 Apr 10:05:25 10:11:58 40° 295° (WNW) 10:18:32 435.675
FO-29 24 Apr 10:11:43 10:17:36 37° 70° (ENE) 10:22:53 435.910
UNISAT 6 24 Apr 10:11:59 10:16:04 38° 72° (ENE) 10:20:06 437.425
OBJECT BX 24 Apr 10:27:40 10:30:16 18° 95° (E) 10:32:51 145.990 - 145.960
PRISM 24 Apr 10:30:10 10:34:17 73° 257° (WSW) 10:38:28 437.425
O/OREOS (USA 219) 24 Apr 10:34:03 10:37:07 18° 100° (E) 10:40:11 437.305
DELFI C3 24 Apr 10:38:45 10:42:28 36° 98° (E) 10:46:09 145.870
ZACube-1 24 Apr 10:53:50 10:57:27 29° 289° (WNW) 11:01:08 437.345
AO-73 24 Apr 11:02:29 11:05:59 26° 290° (WNW) 11:09:31 145.935
Tancredo 1 24 Apr 11:02:52 11:05:20 21° 332° (NNW) 11:07:48 437.200
ISS 24 Apr 11:03:27 11:06:16 26° 330° (NNW) 11:09:05 437.550
QB50P2 24 Apr 11:06:47 11:08:13 12° 64° (ENE) 11:09:39 145.880/145.840
AAUSAT CUBESAT 2 24 Apr 11:07:04 11:08:17 11° 296° (WNW) 11:09:31 437.432
AIST 2D 24 Apr 11:10:37 11:12:55 17° 69° (ENE) 11:15:14 435.315
Oscar 11 24 Apr 11:21:50 11:25:03 20° 292° (WNW) 11:28:15 .
TIGRISAT 24 Apr 11:28:24 11:32:19 31° 263° (W) 11:36:11 435.000
NANOSAT C BR1 24 Apr 11:29:57 11:32:47 18° 67° (ENE) 11:35:37 145.865
LO-87 24 Apr 11:40:41 11:43:13 18° 94° (E) 11:45:43 145.935 - 145.965
UNISAT 6 24 Apr 11:49:59 11:52:53 17° 266° (W) 11:55:46 437.425
RS-15 24 Apr 11:54:10 12:03:32 24° 336° (NNW) 12:13:00 29.354- 29.394
EO-79 24 Apr 11:54:45 11:58:38 36° 72° (ENE) 12:02:31 145.935-145.965
FO-29 24 Apr 11:56:52 12:02:38 32° 262° (W) 12:07:52 435.910
DUCHIFAT 1 24 Apr 12:00:07 12:03:55 34° 71° (ENE) 12:07:43 145.980
OBJECT BX 24 Apr 12:00:54 12:03:55 24° 289° (WNW) 12:06:55 145.990 - 145.960
PCSat 24 Apr 12:05:37 12:10:21 29° 52° (NE) 12:15:03 145.827
O/OREOS (USA 219) 24 Apr 12:11:51 12:16:10 40° 296° (WNW) 12:20:31 437.305
DELFI C3 24 Apr 12:14:29 12:16:55 16° 293° (WNW) 12:19:22 145.870
ESTCUBE 1 24 Apr 12:19:23 12:23:27 32° 97° (E) 12:27:30 437.505/2401.250
POLYITAN 1 24 Apr 12:32:47 12:37:01 77° 259° (W) 12:41:14 437.675
Oscar 19 24 Apr 12:33:38 12:35:01 11° 60° (ENE) 12:36:25 437.125/150
QB50P2 24 Apr 12:39:18 12:43:28 59° 259° (W) 12:47:39 145.880/145.840
AIST 2D 24 Apr 12:43:07 12:45:57 23° 264° (W) 12:48:48 435.315
VELOX 1 24 Apr 12:45:22 12:48:06 16° 93° (E) 12:50:49 145.980
NANOSAT C BR1 24 Apr 13:04:20 13:08:13 35° 262° (W) 13:12:05 145.865
BUGSAT 1 24 Apr 13:12:23 13:16:33 76° 77° (ENE) 13:20:41 437.445
LO-87 24 Apr 13:13:45 13:16:36 23° 290° (WNW) 13:19:27 145.935 - 145.965
AO-85 24 Apr 13:16:58 13:20:49 31° 114° (ESE) 13:24:27 145.980
EO-79 24 Apr 13:31:46 13:34:29 17° 267° (W) 13:37:14 145.935-145.965
DUCHIFAT 1 24 Apr 13:36:49 13:39:39 18° 266° (W) 13:42:30 145.980
DX 1 24 Apr 13:45:05 13:48:48 27° 96° (E) 13:52:30 434.975-435.025
PCSat 24 Apr 13:48:48 13:53:47 38° 250° (WSW) 13:58:44 145.827
Gurwin Techsat 1B 24 Apr 13:49:30 13:54:17 35° 69° (ENE) 13:59:05 435.225
ESTCUBE 1 24 Apr 13:56:30 14:00:03 23° 292° (WNW) 14:03:36 437.505/2401.250
50 SAT 24 Apr 14:04:20 14:07:50 83° 103° (ESE) 14:11:18 437.505
SPROUT 24 Apr 14:06:47 14:10:58 61° 285° (WNW) 14:15:08 437.525
Oscar 19 24 Apr 14:08:23 14:13:32 89° 253° (WSW) 14:18:45 437.125/150
RS-15 24 Apr 14:14:09 14:22:31 20° 12° (NNE) 14:30:44 29.354- 29.394
VELOX 1 24 Apr 14:20:32 14:24:43 42° 288° (WNW) 14:28:52 145.980
UKube-1 24 Apr 14:53:01 14:57:20 72° 285° (WNW) 15:01:36 .
AO-85 24 Apr 14:57:43 15:01:11 24° 309° (NW) 15:04:31 145.980
AO-7 24 Apr 15:09:14 15:16:51 43° 63° (ENE) 15:24:29 .
BEESAT 2 24 Apr 15:16:01 15:19:38 36° 115° (ESE) 15:23:19 435.950
DX 1 24 Apr 15:21:20 15:24:52 25° 292° (WNW) 15:28:22 434.975-435.025
BEESAT 3 24 Apr 15:22:39 15:26:33 64° 302° (WNW) 15:30:32 437.485
ITUPSAT 1 24 Apr 15:25:51 15:29:11 19° 94° (E) 15:32:30 437.325
ITAMSAT 1 24 Apr 15:28:49 15:33:46 46° 71° (ENE) 15:38:43 435.822/435.867
Gurwin Techsat 1B 24 Apr 15:29:48 15:34:15 27° 265° (W) 15:38:43 435.225
YUBILEINY 24 Apr 15:48:10 15:56:13 39° 74° (ENE) 16:04:15 435.215
Tancredo 1 24 Apr 15:53:18 15:56:07 31° 32° (NNE) 15:58:56 437.200
ISS 24 Apr 15:55:53 15:58:44 28° 30° (NNE) 16:01:36 437.550
